owner,sensor,date,latitude,longitude,vertical_datum,wind_speed,wind_to_direction,wind_speed_of_gust,qcFlag 
WAVCIS,ioos:station:WAVCIS:CSI03:3,2012-06-01T00:00:00Z,29.4412,-92.0613,10.0,5.918,177.0,,'11111222,11111222,99999999' 
WAVCIS,ioos:station:WAVCIS:CSI03:3,2012-06-01T01:00:00Z,29.4412,-92.0613,10.0,2.221,237.0,,'11111222,11111222,99999999' 
WAVCIS,ioos:station:WAVCIS:CSI03:3,2012-06-01T02:00:00Z,29.4412,-92.0613,10.0,2.966,248.0,,'11111222,11111222,99999999' 
WAVCIS,ioos:station:WAVCIS:CSI03:3,2012-06-01T03:00:00Z,29.4412,-92.0613,10.0,3.478,270.0,,'11111222,11111222,99999999' 
WAVCIS,ioos:station:WAVCIS:CSI03:3,2012-06-01T04:00:00Z,29.4412,-92.0613,10.0,1.96,311.0,,'11111222,11111222,99999999' 
WAVCIS,ioos:station:WAVCIS:CSI03:3,2012-06-01T05:00:00Z,29.4412,-92.0613,10.0,4.346,263.0,,'11111222,11111222,99999999' 
WAVCIS,ioos:station:WAVCIS:CSI03:3,2012-06-01T06:00:00Z,29.4412,-92.0613,10.0,7.21,277.0,,'11111222,11111222,99999999' 
WAVCIS,ioos:station:WAVCIS:CSI03:3,2012-06-01T07:00:00Z,29.4412,-92.0613,10.0,9.01,269.0,,'11111222,11111222,99999999' 
WAVCIS,ioos:station:WAVCIS:CSI03:3,2012-06-01T08:00:00Z,29.4412,-92.0613,10.0,3.79,306.0,,'11111222,11111222,99999999' 
WAVCIS,ioos:station:WAVCIS:CSI03:3,2012-06-01T09:00:00Z,29.4412,-92.0613,10.0,5.077,318.0,,'11111222,11111222,99999999' 
WAVCIS,ioos:station:WAVCIS:CSI03:3,2012-06-01T10:00:00Z,29.4412,-92.0613,10.0,6.093,348.0,,'11111222,11111222,99999999' 
WAVCIS,ioos:station:WAVCIS:CSI03:3,2012-06-01T11:00:00Z,29.4412,-92.0613,10.0,4.918,333.0,,'11111222,11111222,99999999' 
WAVCIS,ioos:station:WAVCIS:CSI03:3,2012-06-01T12:00:00Z,29.4412,-92.0613,10.0,4.995,334.0,,'11111222,11111222,99999999' 
WAVCIS,ioos:station:WAVCIS:CSI03:3,2012-06-01T13:00:00Z,29.4412,-92.0613,10.0,9.08,337.0,,'11111222,11111222,99999999' 
WAVCIS,ioos:station:WAVCIS:CSI03:3,2012-06-01T14:00:00Z,29.4412,-92.0613,10.0,4.527,0.0,,'11111222,11111222,99999999' 
WAVCIS,ioos:station:WAVCIS:CSI03:3,2012-06-01T15:00:00Z,29.4412,-92.0613,10.0,6.377,11.0,,'11111222,11111222,99999999' 
WAVCIS,ioos:station:WAVCIS:CSI03:3,2012-06-01T16:00:00Z,29.4412,-92.0613,10.0,4.972,7.0,,'11111222,11111222,99999999' 
WAVCIS,ioos:station:WAVCIS:CSI03:3,2012-06-01T17:00:00Z,29.4412,-92.0613,10.0,3.513,358.0,,'11111222,11111222,99999999' 
WAVCIS,ioos:station:WAVCIS:CSI03:3,2012-06-01T18:00:00Z,29.4412,-92.0613,10.0,2.239,353.0,,'11111222,11111222,99999999' 
WAVCIS,ioos:station:WAVCIS:CSI03:3,2012-06-01T19:00:00Z,29.4412,-92.0613,10.0,5.171,358.0,,'11111222,11111222,99999999' 
WAVCIS,ioos:station:WAVCIS:CSI03:3,2012-06-01T20:00:00Z,29.4412,-92.0613,10.0,4.303,0.0,,'11111222,11111222,99999999' 
WAVCIS,ioos:station:WAVCIS:CSI03:3,2012-06-01T21:00:00Z,29.4412,-92.0613,10.0,2.818,2.0,,'11111222,11111222,99999999' 
WAVCIS,ioos:station:WAVCIS:CSI03:3,2012-06-01T22:00:00Z,29.4412,-92.0613,10.0,4.176,8.0,,'11111222,11111222,99999999' 
WAVCIS,ioos:station:WAVCIS:CSI03:3,2012-06-01T23:00:00Z,29.4412,-92.0613,10.0,3.524,359.0,,'11111222,11111222,99999999' 
WAVCIS,ioos:station:WAVCIS:CSI03:3,2012-06-02T00:00:00Z,29.4412,-92.0613,10.0,3.818,7.0,,'11111222,11111222,99999999' 
WAVCIS,ioos:station:WAVCIS:CSI03:3,2012-06-02T01:00:00Z,29.4412,-92.0613,10.0,3.994,3.0,,'11111222,11111222,99999999' 
WAVCIS,ioos:station:WAVCIS:CSI03:3,2012-06-02T02:00:00Z,29.4412,-92.0613,10.0,6.353,42.0,,'11111222,11111222,99999999' 
WAVCIS,ioos:station:WAVCIS:CSI03:3,2012-06-02T03:00:00Z,29.4412,-92.0613,10.0,8.01,54.0,,'11111222,11111222,99999999' 
WAVCIS,ioos:station:WAVCIS:CSI03:3,2012-06-02T04:00:00Z,29.4412,-92.0613,10.0,7.4,60.0,,'11111222,11111222,99999999' 
WAVCIS,ioos:station:WAVCIS:CSI03:3,2012-06-02T05:00:00Z,29.4412,-92.0613,10.0,7.08,73.0,,'11111222,11111222,99999999' 
WAVCIS,ioos:station:WAVCIS:CSI03:3,2012-06-02T06:00:00Z,29.4412,-92.0613,10.0,6.759,72.0,,'11111222,11111222,99999999' 
WAVCIS,ioos:station:WAVCIS:CSI03:3,2012-06-02T07:00:00Z,29.4412,-92.0613,10.0,6.176,80.0,,'11111222,11111222,99999999' 
WAVCIS,ioos:station:WAVCIS:CSI03:3,2012-06-02T08:00:00Z,29.4412,-92.0613,10.0,6.115,80.0,,'11111222,11111222,99999999' 
WAVCIS,ioos:station:WAVCIS:CSI03:3,2012-06-02T09:00:00Z,29.4412,-92.0613,10.0,4.512,107.0,,'11111222,11111222,99999999' 
WAVCIS,ioos:station:WAVCIS:CSI03:3,2012-06-02T10:00:00Z,29.4412,-92.0613,10.0,5.134,106.0,,'11111222,11111222,99999999' 
WAVCIS,ioos:station:WAVCIS:CSI03:3,2012-06-02T11:00:00Z,29.4412,-92.0613,10.0,4.632,108.0,,'11111222,11111222,99999999' 
WAVCIS,ioos:station:WAVCIS:CSI03:3,2012-06-02T12:00:00Z,29.4412,-92.0613,10.0,4.884,107.0,,'11111222,11111222,99999999' 
WAVCIS,ioos:station:WAVCIS:CSI03:3,2012-06-02T13:00:00Z,29.4412,-92.0613,10.0,7.05,84.0,,'11111222,11111222,99999999' 
WAVCIS,ioos:station:WAVCIS:CSI03:3,2012-06-02T14:00:00Z,29.4412,-92.0613,10.0,7.08,106.0,,'11111222,11111222,99999999' 
WAVCIS,ioos:station:WAVCIS:CSI03:3,2012-06-02T15:00:00Z,29.4412,-92.0613,10.0,5.322,113.0,,'11111222,11111222,99999999' 
WAVCIS,ioos:station:WAVCIS:CSI03:3,2012-06-02T16:00:00Z,29.4412,-92.0613,10.0,4.807,148.0,,'11111222,11111222,99999999' 
WAVCIS,ioos:station:WAVCIS:CSI03:3,2012-06-02T17:00:00Z,29.4412,-92.0613,10.0,4.193,132.0,,'11111222,11111222,99999999' 
WAVCIS,ioos:station:WAVCIS:CSI03:3,2012-06-02T18:00:00Z,29.4412,-92.0613,10.0,3.263,171.0,,'11111222,11111222,99999999' 
WAVCIS,ioos:station:WAVCIS:CSI03:3,2012-06-02T19:00:00Z,29.4412,-92.0613,10.0,2.214,163.0,,'11111222,11111222,99999999' 
WAVCIS,ioos:station:WAVCIS:CSI03:3,2012-06-02T20:00:00Z,29.4412,-92.0613,10.0,3.577,154.0,,'11111222,11111222,99999999' 
WAVCIS,ioos:station:WAVCIS:CSI03:3,2012-06-02T21:00:00Z,29.4412,-92.0613,10.0,3.859,179.0,,'11111222,11111222,99999999' 
WAVCIS,ioos:station:WAVCIS:CSI03:3,2012-06-02T22:00:00Z,29.4412,-92.0613,10.0,3.228,180.0,,'11111222,11111222,99999999' 
WAVCIS,ioos:station:WAVCIS:CSI03:3,2012-06-02T23:00:00Z,29.4412,-92.0613,10.0,3.883,181.0,,'11111222,11111222,99999999' 
WAVCIS,ioos:station:WAVCIS:CSI03:3,2012-06-03T00:00:00Z,29.4412,-92.0613,10.0,3.751,180.0,,'11111222,11111222,99999999' 
WAVCIS,ioos:station:WAVCIS:CSI03:3,2012-06-03T01:00:00Z,29.4412,-92.0613,10.0,3.605,181.0,,'11111222,11111222,99999999' 
WAVCIS,ioos:station:WAVCIS:CSI03:3,2012-06-03T02:00:00Z,29.4412,-92.0613,10.0,4.023,179.0,,'11111222,11111222,99999999' 
WAVCIS,ioos:station:WAVCIS:CSI03:3,2012-06-03T03:00:00Z,29.4412,-92.0613,10.0,3.99,177.0,,'11111222,11111222,99999999' 
WAVCIS,ioos:station:WAVCIS:CSI03:3,2012-06-03T04:00:00Z,29.4412,-92.0613,10.0,5.454,179.0,,'11111222,11111222,99999999' 
WAVCIS,ioos:station:WAVCIS:CSI03:3,2012-06-03T05:00:00Z,29.4412,-92.0613,10.0,3.291,188.0,,'11111222,11111222,99999999' 
WAVCIS,ioos:station:WAVCIS:CSI03:3,2012-06-03T06:00:00Z,29.4412,-92.0613,10.0,3.431,195.0,,'11111222,11111222,99999999' 
WAVCIS,ioos:station:WAVCIS:CSI03:3,2012-06-03T07:00:00Z,29.4412,-92.0613,10.0,3.954,199.0,,'11111222,11111222,99999999' 
WAVCIS,ioos:station:WAVCIS:CSI03:3,2012-06-03T08:00:00Z,29.4412,-92.0613,10.0,3.232,199.0,,'11111222,11111222,99999999' 
WAVCIS,ioos:station:WAVCIS:CSI03:3,2012-06-03T09:00:00Z,29.4412,-92.0613,10.0,1.596,203.0,,'11111222,11111222,99999999' 
WAVCIS,ioos:station:WAVCIS:CSI03:3,2012-06-03T10:00:00Z,29.4412,-92.0613,10.0,0.769,207.0,,'11111222,11111222,99999999' 
WAVCIS,ioos:station:WAVCIS:CSI03:3,2012-06-03T11:00:00Z,29.4412,-92.0613,10.0,2.6,236.0,,'11111222,11111222,99999999' 
WAVCIS,ioos:station:WAVCIS:CSI03:3,2012-06-03T12:00:00Z,29.4412,-92.0613,10.0,1.496,232.0,,'11111222,11111222,99999999' 
WAVCIS,ioos:station:WAVCIS:CSI03:3,2012-06-03T13:00:00Z,29.4412,-92.0613,10.0,4.138,242.0,,'11111222,11111222,99999999' 
WAVCIS,ioos:station:WAVCIS:CSI03:3,2012-06-03T14:00:00Z,29.4412,-92.0613,10.0,3.117,245.0,,'11111222,11111222,99999999' 
WAVCIS,ioos:station:WAVCIS:CSI03:3,2012-06-03T15:00:00Z,29.4412,-92.0613,10.0,1.003,225.0,,'11111222,11111222,99999999' 
WAVCIS,ioos:station:WAVCIS:CSI03:3,2012-06-03T16:00:00Z,29.4412,-92.0613,10.0,1.46,198.0,,'11111222,11111222,99999999' 
WAVCIS,ioos:station:WAVCIS:CSI03:3,2012-06-03T17:00:00Z,29.4412,-92.0613,10.0,2.098,194.0,,'11111222,11111222,99999999' 
WAVCIS,ioos:station:WAVCIS:CSI03:3,2012-06-03T18:00:00Z,29.4412,-92.0613,10.0,1.222,193.0,,'11111222,11111222,99999999' 
WAVCIS,ioos:station:WAVCIS:CSI03:3,2012-06-03T19:00:00Z,29.4412,-92.0613,10.0,2.09,195.0,,'11111222,11111222,99999999' 
WAVCIS,ioos:station:WAVCIS:CSI03:3,2012-06-03T20:00:00Z,29.4412,-92.0613,10.0,1.597,197.0,,'11111222,11111222,99999999' 
WAVCIS,ioos:station:WAVCIS:CSI03:3,2012-06-03T21:00:00Z,29.4412,-92.0613,10.0,2.318,198.0,,'11111222,11111222,99999999' 
WAVCIS,ioos:station:WAVCIS:CSI03:3,2012-06-03T22:00:00Z,29.4412,-92.0613,10.0,2.368,193.0,,'11111222,11111222,99999999' 
WAVCIS,ioos:station:WAVCIS:CSI03:3,2012-06-03T23:00:00Z,29.4412,-92.0613,10.0,1.355,194.0,,'11111222,11111222,99999999' 
WAVCIS,ioos:station:WAVCIS:CSI03:3,2012-06-04T00:00:00Z,29.4412,-92.0613,10.0,2.673,195.0,,'11111222,11111222,99999999' 
WAVCIS,ioos:station:WAVCIS:CSI03:3,2012-06-04T01:00:00Z,29.4412,-92.0613,10.0,2.579,191.0,,'11111222,11111222,99999999' 
WAVCIS,ioos:station:WAVCIS:CSI03:3,2012-06-04T02:00:00Z,29.4412,-92.0613,10.0,2.154,198.0,,'11111222,11111222,99999999' 
WAVCIS,ioos:station:WAVCIS:CSI03:3,2012-06-04T03:00:00Z,29.4412,-92.0613,10.0,3.501,188.0,,'11111222,11111222,99999999' 
WAVCIS,ioos:station:WAVCIS:CSI03:3,2012-06-04T04:00:00Z,29.4412,-92.0613,10.0,3.377,197.0,,'11111222,11111222,99999999' 
WAVCIS,ioos:station:WAVCIS:CSI03:3,2012-06-04T05:00:00Z,29.4412,-92.0613,10.0,3.174,193.0,,'11111222,11111222,99999999' 
WAVCIS,ioos:station:WAVCIS:CSI03:3,2012-06-04T06:00:00Z,29.4412,-92.0613,10.0,3.509,193.0,,'11111222,11111222,99999999' 
WAVCIS,ioos:station:WAVCIS:CSI03:3,2012-06-04T07:00:00Z,29.4412,-92.0613,10.0,4.189,200.0,,'11111222,11111222,99999999' 
WAVCIS,ioos:station:WAVCIS:CSI03:3,2012-06-04T08:00:00Z,29.4412,-92.0613,10.0,4.139,201.0,,'11111222,11111222,99999999' 
WAVCIS,ioos:station:WAVCIS:CSI03:3,2012-06-04T09:00:00Z,29.4412,-92.0613,10.0,1.494,214.0,,'11111222,11111222,99999999' 
WAVCIS,ioos:station:WAVCIS:CSI03:3,2012-06-04T10:00:00Z,29.4412,-92.0613,10.0,2.098,226.0,,'11111222,11111222,99999999' 
WAVCIS,ioos:station:WAVCIS:CSI03:3,2012-06-04T11:00:00Z,29.4412,-92.0613,10.0,3.456,235.0,,'11111222,11111222,99999999' 
WAVCIS,ioos:station:WAVCIS:CSI03:3,2012-06-04T12:00:00Z,29.4412,-92.0613,10.0,3.859,237.0,,'11111222,11111222,99999999' 
WAVCIS,ioos:station:WAVCIS:CSI03:3,2012-06-04T13:00:00Z,29.4412,-92.0613,10.0,4.58,240.0,,'11111222,11111222,99999999' 
WAVCIS,ioos:station:WAVCIS:CSI03:3,2012-06-04T14:00:00Z,29.4412,-92.0613,10.0,3.975,246.0,,'11111222,11111222,99999999' 
WAVCIS,ioos:station:WAVCIS:CSI03:3,2012-06-04T15:00:00Z,29.4412,-92.0613,10.0,3.777,262.0,,'11111222,11111222,99999999' 
WAVCIS,ioos:station:WAVCIS:CSI03:3,2012-06-04T16:00:00Z,29.4412,-92.0613,10.0,3.004,265.0,,'11111222,11111222,99999999' 
WAVCIS,ioos:station:WAVCIS:CSI03:3,2012-06-04T17:00:00Z,29.4412,-92.0613,10.0,0.711,187.0,,'11111222,11111222,99999999' 
WAVCIS,ioos:station:WAVCIS:CSI03:3,2012-06-04T18:00:00Z,29.4412,-92.0613,10.0,1.886,184.0,,'11111222,11111222,99999999' 
WAVCIS,ioos:station:WAVCIS:CSI03:3,2012-06-04T19:00:00Z,29.4412,-92.0613,10.0,1.909,182.0,,'11111222,11111222,99999999' 
WAVCIS,ioos:station:WAVCIS:CSI03:3,2012-06-04T20:00:00Z,29.4412,-92.0613,10.0,2.174,189.0,,'11111222,11111222,99999999' 
WAVCIS,ioos:station:WAVCIS:CSI03:3,2012-06-04T21:00:00Z,29.4412,-92.0613,10.0,2.836,191.0,,'11111222,11111222,99999999' 
WAVCIS,ioos:station:WAVCIS:CSI03:3,2012-06-04T22:00:00Z,29.4412,-92.0613,10.0,2.499,197.0,,'11111222,11111222,99999999' 
WAVCIS,ioos:station:WAVCIS:CSI03:3,2012-06-04T23:00:00Z,29.4412,-92.0613,10.0,3.355,196.0,,'11111222,11111222,99999999' 
WAVCIS,ioos:station:WAVCIS:CSI03:3,2012-06-05T00:00:00Z,29.4412,-92.0613,10.0,1.378,221.0,,'11111222,11111222,99999999' 
WAVCIS,ioos:station:WAVCIS:CSI03:3,2012-06-05T01:00:00Z,29.4412,-92.0613,10.0,0.719,200.0,,'11111222,11111222,99999999' 
WAVCIS,ioos:station:WAVCIS:CSI03:3,2012-06-05T02:00:00Z,29.4412,-92.0613,10.0,0.807,211.0,,'11111222,11111222,99999999' 
WAVCIS,ioos:station:WAVCIS:CSI03:3,2012-06-05T03:00:00Z,29.4412,-92.0613,10.0,2.844,205.0,,'11111222,11111222,99999999' 
WAVCIS,ioos:station:WAVCIS:CSI03:3,2012-06-05T04:00:00Z,29.4412,-92.0613,10.0,0.908,214.0,,'11111222,11111222,99999999' 
WAVCIS,ioos:station:WAVCIS:CSI03:3,2012-06-05T05:00:00Z,29.4412,-92.0613,10.0,2.146,210.0,,'11111222,11111222,99999999' 
WAVCIS,ioos:station:WAVCIS:CSI03:3,2012-06-05T06:00:00Z,29.4412,-92.0613,10.0,0.927,210.0,,'11111222,11111222,99999999' 
WAVCIS,ioos:station:WAVCIS:CSI03:3,2012-06-05T07:00:00Z,29.4412,-92.0613,10.0,3.79,238.0,,'11111222,11111222,99999999' 
WAVCIS,ioos:station:WAVCIS:CSI03:3,2012-06-05T08:00:00Z,29.4412,-92.0613,10.0,4.399,241.0,,'11111222,11111222,99999999' 
WAVCIS,ioos:station:WAVCIS:CSI03:3,2012-06-05T09:00:00Z,29.4412,-92.0613,10.0,4.491,254.0,,'11111222,11111222,99999999' 
WAVCIS,ioos:station:WAVCIS:CSI03:3,2012-06-05T10:00:00Z,29.4412,-92.0613,10.0,4.109,241.0,,'11111222,11111222,99999999' 
WAVCIS,ioos:station:WAVCIS:CSI03:3,2012-06-05T11:00:00Z,29.4412,-92.0613,10.0,6.487,269.0,,'11111222,11111222,99999999' 
WAVCIS,ioos:station:WAVCIS:CSI03:3,2012-06-05T12:00:00Z,29.4412,-92.0613,10.0,6.1,269.0,,'11111222,11111222,99999999' 
WAVCIS,ioos:station:WAVCIS:CSI03:3,2012-06-05T13:00:00Z,29.4412,-92.0613,10.0,4.876,287.0,,'11111222,11111222,99999999' 
WAVCIS,ioos:station:WAVCIS:CSI03:3,2012-06-05T14:00:00Z,29.4412,-92.0613,10.0,2.692,0.0,,'11111222,11111222,99999999' 
WAVCIS,ioos:station:WAVCIS:CSI03:3,2012-06-05T15:00:00Z,29.4412,-92.0613,10.0,2.944,350.0,,'11111222,11111222,99999999' 
WAVCIS,ioos:station:WAVCIS:CSI03:3,2012-06-05T16:00:00Z,29.4412,-92.0613,10.0,2.26,330.0,,'11111222,11111222,99999999' 
WAVCIS,ioos:station:WAVCIS:CSI03:3,2012-06-05T17:00:00Z,29.4412,-92.0613,10.0,0.403,347.0,,'11111222,11111222,99999999' 
WAVCIS,ioos:station:WAVCIS:CSI03:3,2012-06-05T18:00:00Z,29.4412,-92.0613,10.0,1.608,188.0,,'11111222,11111222,99999999' 
WAVCIS,ioos:station:WAVCIS:CSI03:3,2012-06-05T19:00:00Z,29.4412,-92.0613,10.0,2.148,185.0,,'11111222,11111222,99999999' 
WAVCIS,ioos:station:WAVCIS:CSI03:3,2012-06-05T20:00:00Z,29.4412,-92.0613,10.0,2.335,189.0,,'11111222,11111222,99999999' 
WAVCIS,ioos:station:WAVCIS:CSI03:3,2012-06-05T21:00:00Z,29.4412,-92.0613,10.0,2.135,201.0,,'11111222,11111222,99999999' 
WAVCIS,ioos:station:WAVCIS:CSI03:3,2012-06-05T22:00:00Z,29.4412,-92.0613,10.0,1.706,196.0,,'11111222,11111222,99999999' 
WAVCIS,ioos:station:WAVCIS:CSI03:3,2012-06-05T23:00:00Z,29.4412,-92.0613,10.0,1.779,232.0,,'11111222,11111222,99999999' 
WAVCIS,ioos:station:WAVCIS:CSI03:3,2012-06-06T00:00:00Z,29.4412,-92.0613,10.0,4.025,240.0,,'11111222,11111222,99999999' 
WAVCIS,ioos:station:WAVCIS:CSI03:3,2012-06-06T01:00:00Z,29.4412,-92.0613,10.0,4.587,240.0,,'11111222,11111222,99999999' 
WAVCIS,ioos:station:WAVCIS:CSI03:3,2012-06-06T02:00:00Z,29.4412,-92.0613,10.0,4.721,242.0,,'11111222,11111222,99999999' 
WAVCIS,ioos:station:WAVCIS:CSI03:3,2012-06-06T03:00:00Z,29.4412,-92.0613,10.0,4.438,260.0,,'11111222,11111222,99999999' 
WAVCIS,ioos:station:WAVCIS:CSI03:3,2012-06-06T04:00:00Z,29.4412,-92.0613,10.0,3.859,251.0,,'11111222,11111222,99999999' 
WAVCIS,ioos:station:WAVCIS:CSI03:3,2012-06-06T05:00:00Z,29.4412,-92.0613,10.0,4.578,259.0,,'11111222,11111222,99999999' 
WAVCIS,ioos:station:WAVCIS:CSI03:3,2012-06-06T06:00:00Z,29.4412,-92.0613,10.0,4.61,261.0,,'11111222,11111222,99999999' 
WAVCIS,ioos:station:WAVCIS:CSI03:3,2012-06-06T07:00:00Z,29.4412,-92.0613,10.0,4.907,274.0,,'11111222,11111222,99999999' 
WAVCIS,ioos:station:WAVCIS:CSI03:3,2012-06-06T08:00:00Z,29.4412,-92.0613,10.0,4.728,267.0,,'11111222,11111222,99999999' 
WAVCIS,ioos:station:WAVCIS:CSI03:3,2012-06-06T09:00:00Z,29.4412,-92.0613,10.0,4.887,284.0,,'11111222,11111222,99999999' 
WAVCIS,ioos:station:WAVCIS:CSI03:3,2012-06-06T10:00:00Z,29.4412,-92.0613,10.0,3.359,286.0,,'11111222,11111222,99999999' 
WAVCIS,ioos:station:WAVCIS:CSI03:3,2012-06-06T11:00:00Z,29.4412,-92.0613,10.0,3.671,335.0,,'11111222,11111222,99999999' 
WAVCIS,ioos:station:WAVCIS:CSI03:3,2012-06-06T12:00:00Z,29.4412,-92.0613,10.0,5.066,332.0,,'11111222,11111222,99999999' 
WAVCIS,ioos:station:WAVCIS:CSI03:3,2012-06-06T13:00:00Z,29.4412,-92.0613,10.0,2.804,349.0,,'11111222,11111222,99999999' 
WAVCIS,ioos:station:WAVCIS:CSI03:3,2012-06-06T14:00:00Z,29.4412,-92.0613,10.0,2.293,1.0,,'11111222,11111222,99999999' 
WAVCIS,ioos:station:WAVCIS:CSI03:3,2012-06-06T15:00:00Z,29.4412,-92.0613,10.0,2.571,354.0,,'11111222,11111222,99999999' 
WAVCIS,ioos:station:WAVCIS:CSI03:3,2012-06-06T16:00:00Z,29.4412,-92.0613,10.0,1.493,13.0,,'11111222,11111222,99999999' 
WAVCIS,ioos:station:WAVCIS:CSI03:3,2012-06-06T17:00:00Z,29.4412,-92.0613,10.0,0.966,51.0,,'11111222,11111222,99999999' 
WAVCIS,ioos:station:WAVCIS:CSI03:3,2012-06-06T18:00:00Z,29.4412,-92.0613,10.0,1.339,174.0,,'11111222,11111222,99999999' 
WAVCIS,ioos:station:WAVCIS:CSI03:3,2012-06-06T19:00:00Z,29.4412,-92.0613,10.0,0.443,195.0,,'11111222,11111222,99999999' 
WAVCIS,ioos:station:WAVCIS:CSI03:3,2012-06-06T20:00:00Z,29.4412,-92.0613,10.0,1.147,249.0,,'11111222,11111222,99999999' 
WAVCIS,ioos:station:WAVCIS:CSI03:3,2012-06-06T21:00:00Z,29.4412,-92.0613,10.0,0.937,212.0,,'11111222,11111222,99999999' 
WAVCIS,ioos:station:WAVCIS:CSI03:3,2012-06-06T22:00:00Z,29.4412,-92.0613,10.0,2.171,236.0,,'11111222,11111222,99999999' 
WAVCIS,ioos:station:WAVCIS:CSI03:3,2012-06-06T23:00:00Z,29.4412,-92.0613,10.0,4.506,261.0,,'11111222,11111222,99999999' 
WAVCIS,ioos:station:WAVCIS:CSI03:3,2012-06-07T00:00:00Z,29.4412,-92.0613,10.0,7.59,342.0,,'11111222,11111222,99999999' 
WAVCIS,ioos:station:WAVCIS:CSI03:3,2012-06-07T01:00:00Z,29.4412,-92.0613,10.0,14.9,67.0,,'11111222,11111222,99999999' 
WAVCIS,ioos:station:WAVCIS:CSI03:3,2012-06-07T02:00:00Z,29.4412,-92.0613,10.0,11.56,74.0,,'11111222,11111222,99999999' 
WAVCIS,ioos:station:WAVCIS:CSI03:3,2012-06-07T03:00:00Z,29.4412,-92.0613,10.0,8.69,64.0,,'11111222,11111222,99999999' 
WAVCIS,ioos:station:WAVCIS:CSI03:3,2012-06-07T04:00:00Z,29.4412,-92.0613,10.0,6.395,54.0,,'11111222,11111222,99999999' 
WAVCIS,ioos:station:WAVCIS:CSI03:3,2012-06-07T05:00:00Z,29.4412,-92.0613,10.0,3.742,17.0,,'11111222,11111222,99999999' 
WAVCIS,ioos:station:WAVCIS:CSI03:3,2012-06-07T06:00:00Z,29.4412,-92.0613,10.0,0.92,20.0,,'11111222,11111222,99999999' 
WAVCIS,ioos:station:WAVCIS:CSI03:3,2012-06-07T07:00:00Z,29.4412,-92.0613,10.0,4.386,16.0,,'11111222,11111222,99999999' 
WAVCIS,ioos:station:WAVCIS:CSI03:3,2012-06-07T08:00:00Z,29.4412,-92.0613,10.0,5.503,45.0,,'11111222,11111222,99999999' 
WAVCIS,ioos:station:WAVCIS:CSI03:3,2012-06-07T09:00:00Z,29.4412,-92.0613,10.0,4.816,46.0,,'11111222,11111222,99999999' 
WAVCIS,ioos:station:WAVCIS:CSI03:3,2012-06-07T10:00:00Z,29.4412,-92.0613,10.0,5.396,53.0,,'11111222,11111222,99999999' 
WAVCIS,ioos:station:WAVCIS:CSI03:3,2012-06-07T11:00:00Z,29.4412,-92.0613,10.0,5.095,69.0,,'11111222,11111222,99999999' 
WAVCIS,ioos:station:WAVCIS:CSI03:3,2012-06-07T12:00:00Z,29.4412,-92.0613,10.0,5.105,81.0,,'11111222,11111222,99999999' 
WAVCIS,ioos:station:WAVCIS:CSI03:3,2012-06-07T13:00:00Z,29.4412,-92.0613,10.0,2.949,84.0,,'11111222,11111222,99999999' 
WAVCIS,ioos:station:WAVCIS:CSI03:3,2012-06-07T14:00:00Z,29.4412,-92.0613,10.0,3.498,57.0,,'11111222,11111222,99999999' 
WAVCIS,ioos:station:WAVCIS:CSI03:3,2012-06-07T15:00:00Z,29.4412,-92.0613,10.0,2.823,85.0,,'11111222,11111222,99999999' 
WAVCIS,ioos:station:WAVCIS:CSI03:3,2012-06-07T16:00:00Z,29.4412,-92.0613,10.0,3.337,102.0,,'11111222,11111222,99999999' 
WAVCIS,ioos:station:WAVCIS:CSI03:3,2012-06-07T17:00:00Z,29.4412,-92.0613,10.0,3.068,108.0,,'11111222,11111222,99999999' 
WAVCIS,ioos:station:WAVCIS:CSI03:3,2012-06-07T18:00:00Z,29.4412,-92.0613,10.0,2.153,121.0,,'11111222,11111222,99999999' 
WAVCIS,ioos:station:WAVCIS:CSI03:3,2012-06-07T19:00:00Z,29.4412,-92.0613,10.0,2.151,172.0,,'11111222,11111222,99999999' 
WAVCIS,ioos:station:WAVCIS:CSI03:3,2012-06-07T20:00:00Z,29.4412,-92.0613,10.0,3.776,176.0,,'11111222,11111222,99999999' 
WAVCIS,ioos:station:WAVCIS:CSI03:3,2012-06-07T21:00:00Z,29.4412,-92.0613,10.0,3.135,189.0,,'11111222,11111222,99999999' 
WAVCIS,ioos:station:WAVCIS:CSI03:3,2012-06-07T22:00:00Z,29.4412,-92.0613,10.0,2.861,191.0,,'11111222,11111222,99999999' 
WAVCIS,ioos:station:WAVCIS:CSI03:3,2012-06-07T23:00:00Z,29.4412,-92.0613,10.0,1.398,184.0,,'11111222,11111222,99999999' 
WAVCIS,ioos:station:WAVCIS:CSI03:3,2012-06-08T00:00:00Z,29.4412,-92.0613,10.0,15.69,52.0,,'11111222,11111222,99999999' 
WAVCIS,ioos:station:WAVCIS:CSI03:3,2012-06-08T01:00:00Z,29.4412,-92.0613,10.0,12.12,63.0,,'11111222,11111222,99999999' 
WAVCIS,ioos:station:WAVCIS:CSI03:3,2012-06-08T02:00:00Z,29.4412,-92.0613,10.0,6.072,100.0,,'11111222,11111222,99999999' 
WAVCIS,ioos:station:WAVCIS:CSI03:3,2012-06-08T03:00:00Z,29.4412,-92.0613,10.0,5.061,93.0,,'11111222,11111222,99999999' 
WAVCIS,ioos:station:WAVCIS:CSI03:3,2012-06-08T04:00:00Z,29.4412,-92.0613,10.0,4.663,46.0,,'11111222,11111222,99999999' 
WAVCIS,ioos:station:WAVCIS:CSI03:3,2012-06-08T05:00:00Z,29.4412,-92.0613,10.0,2.938,110.0,,'11111222,11111222,99999999' 
WAVCIS,ioos:station:WAVCIS:CSI03:3,2012-06-08T06:00:00Z,29.4412,-92.0613,10.0,4.086,124.0,,'11111222,11111222,99999999' 
WAVCIS,ioos:station:WAVCIS:CSI03:3,2012-06-08T07:00:00Z,29.4412,-92.0613,10.0,3.826,72.0,,'11111222,11111222,99999999' 
WAVCIS,ioos:station:WAVCIS:CSI03:3,2012-06-08T08:00:00Z,29.4412,-92.0613,10.0,5.333,70.0,,'11111222,11111222,99999999' 
WAVCIS,ioos:station:WAVCIS:CSI03:3,2012-06-08T09:00:00Z,29.4412,-92.0613,10.0,4.807,62.0,,'11111222,11111222,99999999' 
WAVCIS,ioos:station:WAVCIS:CSI03:3,2012-06-08T10:00:00Z,29.4412,-92.0613,10.0,6.269,66.0,,'11111222,11111222,99999999' 
WAVCIS,ioos:station:WAVCIS:CSI03:3,2012-06-08T11:00:00Z,29.4412,-92.0613,10.0,5.652,71.0,,'11111222,11111222,99999999' 
WAVCIS,ioos:station:WAVCIS:CSI03:3,2012-06-08T12:00:00Z,29.4412,-92.0613,10.0,4.353,68.0,,'11111222,11111222,99999999' 
WAVCIS,ioos:station:WAVCIS:CSI03:3,2012-06-08T13:00:00Z,29.4412,-92.0613,10.0,4.35,51.0,,'11111222,11111222,99999999' 
WAVCIS,ioos:station:WAVCIS:CSI03:3,2012-06-08T14:00:00Z,29.4412,-92.0613,10.0,4.887,49.0,,'11111222,11111222,99999999' 
WAVCIS,ioos:station:WAVCIS:CSI03:3,2012-06-08T15:00:00Z,29.4412,-92.0613,10.0,5.279,65.0,,'11111222,11111222,99999999' 
WAVCIS,ioos:station:WAVCIS:CSI03:3,2012-06-08T16:00:00Z,29.4412,-92.0613,10.0,4.935,84.0,,'11111222,11111222,99999999' 
WAVCIS,ioos:station:WAVCIS:CSI03:3,2012-06-08T17:00:00Z,29.4412,-92.0613,10.0,3.477,89.0,,'11111222,11111222,99999999' 
WAVCIS,ioos:station:WAVCIS:CSI03:3,2012-06-08T18:00:00Z,29.4412,-92.0613,10.0,4.946,112.0,,'11111222,11111222,99999999' 
WAVCIS,ioos:station:WAVCIS:CSI03:3,2012-06-08T19:00:00Z,29.4412,-92.0613,10.0,4.739,135.0,,'11111222,11111222,99999999' 
WAVCIS,ioos:station:WAVCIS:CSI03:3,2012-06-08T20:00:00Z,29.4412,-92.0613,10.0,3.857,150.0,,'11111222,11111222,99999999' 
WAVCIS,ioos:station:WAVCIS:CSI03:3,2012-06-08T21:00:00Z,29.4412,-92.0613,10.0,7.15,54.0,,'11111222,11111222,99999999' 
WAVCIS,ioos:station:WAVCIS:CSI03:3,2012-06-08T22:00:00Z,29.4412,-92.0613,10.0,8.07,104.0,,'11111222,11111222,99999999' 
WAVCIS,ioos:station:WAVCIS:CSI03:3,2012-06-08T23:00:00Z,29.4412,-92.0613,10.0,6.23,86.0,,'11111222,11111222,99999999' 
WAVCIS,ioos:station:WAVCIS:CSI03:3,2012-06-09T00:00:00Z,29.4412,-92.0613,10.0,7.03,83.0,,'11111222,11111222,99999999' 
WAVCIS,ioos:station:WAVCIS:CSI03:3,2012-06-09T01:00:00Z,29.4412,-92.0613,10.0,6.098,84.0,,'11111222,11111222,99999999' 
WAVCIS,ioos:station:WAVCIS:CSI03:3,2012-06-09T02:00:00Z,29.4412,-92.0613,10.0,9.39,61.0,,'11111222,11111222,99999999' 
WAVCIS,ioos:station:WAVCIS:CSI03:3,2012-06-09T03:00:00Z,29.4412,-92.0613,10.0,8.58,84.0,,'11111222,11111222,99999999' 
WAVCIS,ioos:station:WAVCIS:CSI03:3,2012-06-09T04:00:00Z,29.4412,-92.0613,10.0,7.37,76.0,,'11111222,11111222,99999999' 
WAVCIS,ioos:station:WAVCIS:CSI03:3,2012-06-09T05:00:00Z,29.4412,-92.0613,10.0,7.0,88.0,,'11111222,11111222,99999999' 